Location: Theydon Bois
(51.6750°N, 0.1050°E)
Time: 19:45:04
(UTC+00:00)

Starlink Launch 2 leader - Visible Passes

Search period start: 07 December 2019 00:00
Search period end: 17 December 2019 00:00
Orbit: 279 x 281 km, 53.0° (Epoch: 13 November)

Date Brightness Start Highest point End Pass type
(mag) Time Alt. Az. Time Alt. Az. Time Alt. Az.
07 Dec 5.3 05:16:05 17° ESE 05:16:05 17° ESE 05:16:47 10° ESE visible
07 Dec 4.8 06:46:22 10° WSW 06:47:34 13° SW 06:48:46 10° S visible
08 Dec 5.4 05:18:06 14° SE 05:18:06 14° SE 05:18:34 10° SE visible
09 Dec 5.6 05:20:10 10° SSE 05:20:10 10° SSE 05:20:12 10° SSE visible
